Погода в Большом Нагаткино

Россия / Ульяновская область     54°30′57″N   47°58′26″E
темп.,
°C
ветер,
м/с
пор.,
м/с
влажн.,
%
обл.,
%
осадки,
мм/ч
давл.,
гПа
погр.,
м
7 мая, пт
пт701:00+11ююз41272100 0.0 1015225
04:00+10ю41271100 0.0 1015229
07:00+11ююз51269100 0.0 1014289
10:00+15ю71155100 0.0 1014910
13:00+17ю81143100 0.0 10141756
16:00+18ю8114489 0.0 10132525
19:00+15зюз5963100 0.1 1013386
22:00+11зсз2591100 1.1 1015388
8 мая, сб
сб801:00+10с3491100 0.4 1016280
04:00+8с4690100 0.8 1017347
07:00+8св3592100 0.6 1017270
10:00+9в3692100 0.6 1017295
13:00+13юв457752 0.1 1016798
16:00+16юв4663100 0.2 10141236
19:00+14вюв36774 0.0 1013197
22:00+11юв3477100 0.0 101352
9 мая, вс
вс901:00+10ю3581100 0.0 101279
04:00+10ююв348598 0.0 101258
07:00+11ююв398092 0.0 1012249
10:00+17ю6854100 0.0 1012685
13:00+20ю5747100 0.0 10121365
16:00+20ююз4649100 0.0 10121670
19:00+14зсз5778100 0.1 1014358
22:00+12ссв2394100 1.9 1016128
10 мая, пн
пн1001:00+10сз3596100 2.5 1017242
04:00+9ссз4694100 3.0 1019226
07:00+9с5792100 0.2 1021329
10:00+12с6883100 0.2 1023563
13:00+14с6676100 0.1 1024737
16:00+14с677483 0.1 1024839
19:00+12ссв697859 0.0 1025652
22:00+10ссв5118338 0.0 1027419
11 мая, вт
вт1101:00+9ссв511849 0.0 1027431
04:00+7ссв412883 0.0 1027392
07:00+8св612800 0.0 1029535
10:00+12св810510 0.0 1029754
13:00+14св78425 0.0 1028963
16:00+15св78390 0.0 10281016
19:00+14св510515 0.0 1028466
22:00+10св410585 0.0 1029153